Weather History for Thief River Falls, MN

Change the Weather History Date:

Friday, January 31, 2014

  Actual Average Record
Temperature  
Mean Temperature -8 °F -  
Max Temperature 3 °F 16 °F 41 °F (1993)
Min Temperature -18 °F 2 °F -26 °F (1974)
Degree Days  
Heating Degree Days 72    
Moisture  
Dew Point -13 °F    
Average Humidity 69    
Maximum Humidity 92    
Minimum Humidity 43    
Precipitation  
Precipitation 0.00 in - - ()
Sea Level Pressure  
Sea Level Pressure 29.87 in    
Wind  
Wind Speed 10 mph (SSW)    
Max Wind Speed 17 mph    
Max Gust Speed 20 mph    
Visibility 10 miles    
Events      
Averages and records for this station are not official NWS values.
T = Trace of Precipitation, MM = Missing Value Source: NWS Daily Summary

Daily Weather History Graph

Daily Weather History Graph

Search for Another Location

Airport:

Trip Planner

Search our weather history database for the weather conditions in past years. The results will help you decide how hot, cold, wet, or windy it might be!

Date:

Astronomy

Jan. 31, 2014 Rise Set
Actual Time 7:53 AM CST 5:23 PM CST
Civil Twilight 7:20 AM CST 5:56 PM CST
Nautical Twilight 6:42 AM CST 6:34 PM CST
Astronomical Twilight 6:06 AM CST 7:10 PM CST
Moon 7:56 AM CST (1/31) 6:58 PM CST (1/31)
Length of Visible Light 10h 36m
Length of Day
9h 29m
New Moon, 1% of the Moon is Illuminated
Jan 31
New Moon
Feb 6
First Quarter
Feb 14
Full
Feb 22
Last Quarter
Mar 1
New

Hourly Weather History & Observations

Time (CST) Temp. Windchill Dew Point Humidity Pressure Visibility Wind Dir Wind Speed Gust Speed Precip Events Conditions
12:15 AM -7.6 °F -24.6 °F -11.2 °F 84% 29.93 in 10.0 mi WSW 9.2 mph - N/A   Unknown
12:35 AM -7.6 °F -24.6 °F -11.2 °F 84% 29.93 in 10.0 mi WSW 9.2 mph - N/A   Unknown
12:55 AM -7.6 °F -23.4 °F -11.2 °F 84% 29.93 in 8.0 mi WSW 8.1 mph - N/A   Unknown
1:15 AM -7.6 °F -23.4 °F -9.4 °F 92% 29.92 in 8.0 mi SW 8.1 mph - N/A   Unknown
1:35 AM -7.6 °F -23.4 °F -14.8 °F 71% 29.93 in 10.0 mi WSW 8.1 mph - N/A   Unknown
1:55 AM -7.6 °F -20.6 °F -11.2 °F 84% 29.92 in 10.0 mi SW 5.8 mph - N/A   Unknown
2:15 AM -7.6 °F -20.6 °F -11.2 °F 84% 29.92 in 10.0 mi SW 5.8 mph - N/A   Unknown
2:35 AM -7.6 °F -25.7 °F -14.8 °F 71% 29.93 in 10.0 mi SW 10.4 mph - N/A   Unknown
2:55 AM -9.4 °F -27.9 °F -13.0 °F 84% 29.93 in 10.0 mi WSW 10.4 mph - N/A   Unknown
3:15 AM -9.4 °F -26.8 °F -14.8 °F 77% 29.93 in 10.0 mi WSW 9.2 mph - N/A   Unknown
3:35 AM -11.2 °F -27.8 °F -23.8 °F 54% 29.92 in 10.0 mi WSW 8.1 mph - N/A   Unknown
3:55 AM -11.2 °F -30.1 °F - N/A% 29.92 in 10.0 mi WSW 10.4 mph - N/A   Unknown
4:15 AM -11.2 °F -29.0 °F - N/A% 29.91 in 10.0 mi WSW 9.2 mph - N/A   Unknown
4:35 AM -11.2 °F -29.0 °F - N/A% 29.91 in 10.0 mi WSW 9.2 mph - N/A   Unknown
4:55 AM -13.0 °F -31.3 °F -27.4 °F 49% 29.92 in 10.0 mi SW 9.2 mph - N/A   Unknown
5:15 AM -14.8 °F -33.5 °F -25.6 °F 58% 29.92 in 10.0 mi SW 9.2 mph - N/A   Unknown
5:35 AM -14.8 °F -33.5 °F -27.4 °F 53% 29.91 in 10.0 mi SW 9.2 mph - N/A   Unknown
5:55 AM -14.8 °F -33.5 °F -25.6 °F 58% 29.90 in 10.0 mi SW 9.2 mph - N/A   Unknown
6:15 AM -14.8 °F -33.5 °F -25.6 °F 58% 29.91 in 10.0 mi SSW 9.2 mph - N/A   Unknown
6:35 AM -14.8 °F -33.5 °F -29.2 °F 48% 29.91 in 10.0 mi SSW 9.2 mph - N/A   Unknown
6:55 AM -16.6 °F -36.8 °F -27.4 °F 58% 29.90 in 10.0 mi SSW 10.4 mph - N/A   Unknown
7:15 AM -18.4 °F -36.6 °F -29.2 °F 58% 29.91 in 10.0 mi SW 8.1 mph - N/A   Unknown
7:35 AM -16.6 °F -36.8 °F -23.8 °F 70% 29.91 in 10.0 mi SW 10.4 mph - N/A   Unknown
7:55 AM -16.6 °F -34.4 °F -25.6 °F 64% 29.91 in 10.0 mi SW 8.1 mph - N/A   Unknown
8:15 AM -16.6 °F -35.7 °F -23.8 °F 70% 29.91 in 10.0 mi SW 9.2 mph - N/A   Unknown
8:35 AM -16.6 °F -36.8 °F -25.6 °F 64% 29.91 in 10.0 mi SSW 10.4 mph - N/A   Unknown
8:55 AM -16.6 °F -37.9 °F -27.4 °F 58% 29.91 in 10.0 mi SSW 11.5 mph - N/A   Unknown
9:15 AM -14.8 °F -36.6 °F -18.4 °F 84% 29.91 in 10.0 mi SSW 12.7 mph - N/A   Unknown
9:35 AM -13.0 °F -32.4 °F -20.2 °F 70% 29.91 in 10.0 mi SSW 10.4 mph - N/A   Unknown
9:55 AM -11.2 °F -31.1 °F -20.2 °F 64% 29.90 in 10.0 mi SSW 11.5 mph - N/A   Unknown
10:15 AM -9.4 °F -30.6 °F -16.6 °F 71% 29.89 in 10.0 mi SW 13.8 mph - N/A   Unknown
10:35 AM -7.6 °F -29.1 °F -16.6 °F 65% 29.90 in 10.0 mi SSW 15.0 mph - N/A   Unknown
10:55 AM -7.6 °F -28.3 °F -18.4 °F 59% 29.89 in 10.0 mi SSW 13.8 mph 19.6 mph N/A   Unknown
11:15 AM -7.6 °F -27.5 °F -14.8 °F 71% 29.89 in 10.0 mi SSW 12.7 mph - N/A   Unknown
11:35 AM -5.8 °F -23.4 °F -16.6 °F 60% 29.89 in 10.0 mi SSW 10.4 mph - N/A   Unknown
11:55 AM -4.0 °F -23.7 °F -11.2 °F 71% 29.89 in 10.0 mi SW 13.8 mph 17.3 mph N/A   Unknown
12:15 PM -2.2 °F -20.7 °F -14.8 °F 55% 29.88 in 10.0 mi SW 12.7 mph 18.4 mph N/A   Clear
12:35 PM -2.2 °F -21.5 °F -11.2 °F 66% 29.89 in 10.0 mi SSW 13.8 mph - N/A   Clear
12:55 PM -2.2 °F -21.5 °F -11.2 °F 66% 29.88 in 10.0 mi SSW 13.8 mph - N/A   Clear
1:15 PM -2.2 °F -21.5 °F -14.8 °F 55% 29.87 in 10.0 mi SSW 13.8 mph - N/A   Clear
1:35 PM -2.2 °F -20.7 °F -9.4 °F 71% 29.86 in 10.0 mi SSW 12.7 mph - N/A   Clear
1:55 PM -0.4 °F -18.4 °F -11.2 °F 60% 29.85 in 10.0 mi South 12.7 mph - N/A   Clear
2:15 PM -0.4 °F -18.4 °F -7.6 °F 72% 29.85 in 10.0 mi South 12.7 mph - N/A   Clear
2:35 PM -0.4 °F -19.9 °F -11.2 °F 60% 29.84 in 10.0 mi SSW 15.0 mph - N/A   Clear
2:55 PM -0.4 °F -19.2 °F -9.4 °F 66% 29.84 in 10.0 mi SSW 13.8 mph - N/A   Clear
3:15 PM -0.4 °F -20.5 °F -7.6 °F 72% 29.84 in 10.0 mi SSW 16.1 mph - N/A   Clear
3:35 PM -0.4 °F -19.2 °F -9.4 °F 66% 29.83 in 10.0 mi SSW 13.8 mph - N/A   Clear
3:55 PM 1.4 °F -18.8 °F -11.2 °F 56% 29.83 in 10.0 mi SSW 17.3 mph - N/A   Clear
4:15 PM -0.4 °F -20.5 °F -7.6 °F 72% 29.83 in 10.0 mi South 16.1 mph - N/A   Clear
4:35 PM -0.4 °F -20.5 °F -9.4 °F 66% 29.83 in 10.0 mi SSW 16.1 mph - N/A   Unknown
4:55 PM -0.4 °F -19.2 °F -14.8 °F 51% 29.83 in 10.0 mi South 13.8 mph - N/A   Clear
5:15 PM -0.4 °F -19.2 °F -4.0 °F 85% 29.82 in 10.0 mi South 13.8 mph - N/A   Clear
5:35 PM -0.4 °F -17.6 °F -11.2 °F 60% 29.82 in 10.0 mi South 11.5 mph - N/A   Unknown
5:55 PM -0.4 °F -16.7 °F -13.0 °F 55% 29.81 in 10.0 mi South 10.4 mph - N/A   Unknown
6:15 PM -0.4 °F -17.6 °F -7.6 °F 72% 29.81 in 10.0 mi South 11.5 mph - N/A   Unknown
6:35 PM -0.4 °F -18.4 °F -9.4 °F 66% 29.80 in 10.0 mi South 12.7 mph - N/A   Clear
6:55 PM -0.4 °F -17.6 °F -14.8 °F 51% 29.81 in 10.0 mi South 11.5 mph - N/A   Clear
7:15 PM -0.4 °F -17.6 °F -2.2 °F 92% 29.81 in 10.0 mi SSW 11.5 mph - N/A   Clear
7:35 PM -0.4 °F -18.4 °F -14.8 °F 51% 29.81 in 10.0 mi SSW 12.7 mph - N/A   Clear
7:55 PM 1.4 °F -18.2 °F -0.4 °F 92% 29.82 in 10.0 mi SSW 16.1 mph - N/A   Clear
8:15 PM 1.4 °F -17.6 °F -16.6 °F 43% 29.83 in 10.0 mi SSW 15.0 mph - N/A   Clear
8:35 PM 1.4 °F -16.1 °F -5.8 °F 72% 29.83 in 10.0 mi SSW 12.7 mph - N/A   Clear
8:55 PM 1.4 °F -15.3 °F -5.8 °F 72% 29.82 in 10.0 mi SSW 11.5 mph - N/A   Clear
9:15 PM 1.4 °F -16.1 °F -4.0 °F 78% 29.82 in 10.0 mi SSW 12.7 mph - N/A   Clear
9:35 PM 3.2 °F -13.9 °F -2.2 °F 78% 29.81 in 10.0 mi SSW 12.7 mph - N/A   Clear
9:55 PM 3.2 °F -13.9 °F -2.2 °F 78% 29.82 in 10.0 mi SSW 12.7 mph - N/A   Partly Cloudy
10:15 PM 3.2 °F -13.1 °F -0.4 °F 85% 29.81 in 10.0 mi SSW 11.5 mph - N/A   Partly Cloudy
10:35 PM 3.2 °F -13.1 °F -0.4 °F 85% 29.81 in 10.0 mi SSW 11.5 mph - N/A   Clear
10:55 PM 3.2 °F -13.1 °F -0.4 °F 85% 29.81 in 10.0 mi SSW 11.5 mph - N/A   Clear
11:15 PM 3.2 °F -13.1 °F -0.4 °F 85% 29.81 in 10.0 mi SSW 11.5 mph - N/A   Clear
11:35 PM 3.2 °F -9.1 °F -5.8 °F 66% 29.81 in 10.0 mi South 6.9 mph - N/A   Partly Cloudy
11:55 PM 1.4 °F -9.9 °F -2.2 °F 85% 29.80 in 10.0 mi South 5.8 mph - N/A   Partly Cloudy